Simultaneous Nadir Overpasses (SNOs) Predictions

Prediction of SNOs between GOES-14 and NPP Satellite Orbit:

Table of predicted SNOs for the next 14.0 days since TLE Epoch: 2/10/2024
Index Date Time (GOES-14) GOES-14 Lat,Lon NPP Lat,Lon Distance(km) Time Diff (sec)
1 02/10/2024 08:37:17 0.01,-108.44 -0.05,-108.31 15.88 80
2 02/12/2024 20:43:08 -0.01,-108.46 -0.12,-109.08 70.77 80
3 02/13/2024 20:21:43 0.00,-108.45 0.87,-104.54 445.48 80
4 02/15/2024 08:46:10 0.01,-108.43 0.31,-109.81 157.21 80
5 02/16/2024 08:24:45 0.00,-108.42 -0.68,-105.27 358.76 80
6 02/17/2024 20:49:20 -0.01,-108.43 -0.51,-110.57 243.94 80
7 02/18/2024 20:27:55 -0.01,-108.43 0.54,-106.05 272.17 80
8 02/20/2024 08:52:22 0.02,-108.41 0.69,-111.30 330.43 80
9 02/21/2024 08:30:57 0.01,-108.40 -0.37,-106.78 185.56 80
10 02/22/2024 20:55:32 -0.02,-108.41 -0.87,-112.06 417.13 80
11 02/23/2024 20:34:07 -0.02,-108.41 0.20,-107.54 99.26 80
